LGX37B LEMH-LEAL

Flight info

Callsign LGX37B
Flight time 0h 43m
Altitude 26000
Route BAVER M603 GERVU
Aircraft B38M/M-SDE1FGHILORVWXY/HB1

Departure

Time 2026-04-23 15:24
Airport Menorca Airport (LEMH)

Arrival

Time 2026-04-23 16:07
Airport Alicante-Elche Miguel Hernández Airport (LEAL)
Time Latitude Longitude Altitude Speed Heading
2026-04-23 15:15 39.86373 4.22383 286 ft 0 kts 100°
2026-04-23 15:17 39.86373 4.22382 286 ft 2 kts 100°
2026-04-23 15:17 39.86379 4.22350 286 ft 4 kts 110°
2026-04-23 15:17 39.86391 4.22320 287 ft 4 kts 135°
2026-04-23 15:18 39.86411 4.22305 288 ft 3 kts 187°
2026-04-23 15:18 39.86418 4.22307 292 ft 0 kts 189°
2026-04-23 15:21 39.86410 4.22305 288 ft 7 kts 189°
2026-04-23 15:21 39.86336 4.22290 288 ft 15 kts 189°
2026-04-23 15:21 39.86205 4.22255 292 ft 19 kts 217°
2026-04-23 15:22 39.86186 4.22104 298 ft 15 kts 231°
2026-04-23 15:22 39.86037 4.22057 296 ft 30 kts 188°
2026-04-23 15:22 39.85830 4.22016 294 ft 30 kts 189°
2026-04-23 15:22 39.85619 4.21974 287 ft 31 kts 188°
2026-04-23 15:23 39.85401 4.21929 282 ft 32 kts 189°
2026-04-23 15:23 39.85182 4.21885 280 ft 31 kts 189°
2026-04-23 15:23 39.85138 4.21713 284 ft 22 kts 279°
2026-04-23 15:23 39.85326 4.21673 285 ft 59 kts
2026-04-23 15:24 39.85957 4.21805 301 ft 123 kts
2026-04-23 15:24 39.86939 4.22025 627 ft 148 kts 12°
2026-04-23 15:24 39.87900 4.22242 1512 ft 140 kts 18°
2026-04-23 15:24 39.88821 4.22967 1831 ft 175 kts 52°
2026-04-23 15:25 39.89271 4.24510 2400 ft 193 kts 91°
2026-04-23 15:25 39.88825 4.26097 3441 ft 185 kts 130°
2026-04-23 15:25 39.87729 4.26928 4366 ft 194 kts 165°
2026-04-23 15:25 39.86296 4.26682 4838 ft 229 kts 208°
2026-04-23 15:26 39.85192 4.25145 5668 ft 243 kts 240°
2026-04-23 15:26 39.84543 4.23032 6415 ft 261 kts 253°
2026-04-23 15:26 39.84022 4.20690 7134 ft 279 kts 253°
2026-04-23 15:26 39.83394 4.18249 8072 ft 287 kts 250°
2026-04-23 15:27 39.82640 4.15827 9075 ft 291 kts 248°
2026-04-23 15:27 39.81825 4.13428 10073 ft 295 kts 248°
2026-04-23 15:27 39.80980 4.10945 10787 ft 309 kts 249°
2026-04-23 15:27 39.80114 4.08310 11331 ft 326 kts 251°
2026-04-23 15:28 39.79221 4.05515 11817 ft 343 kts 251°
2026-04-23 15:28 39.78289 4.02595 12382 ft 355 kts 251°
2026-04-23 15:28 39.77324 3.99610 13225 ft 360 kts 251°
2026-04-23 15:28 39.76339 3.96593 14022 ft 365 kts 251°
2026-04-23 15:29 39.75342 3.93543 14801 ft 369 kts 251°
2026-04-23 15:29 39.74334 3.90455 15543 ft 373 kts 251°
2026-04-23 15:29 39.73317 3.87332 16266 ft 378 kts 251°
2026-04-23 15:29 39.72287 3.84172 16960 ft 382 kts 251°
2026-04-23 15:30 39.71242 3.80970 17630 ft 386 kts 251°
2026-04-23 15:30 39.70189 3.77748 18269 ft 390 kts 251°
2026-04-23 15:30 39.69122 3.74493 18894 ft 394 kts 251°
2026-04-23 15:30 39.68045 3.71208 19496 ft 397 kts 251°
2026-04-23 15:31 39.66960 3.67898 20073 ft 401 kts 251°
2026-04-23 15:31 39.65861 3.64556 20643 ft 404 kts 251°
2026-04-23 15:31 39.64754 3.61187 21193 ft 407 kts 251°
2026-04-23 15:31 39.63636 3.57794 21725 ft 411 kts 252°
2026-04-23 15:32 39.62600 3.54339 22224 ft 411 kts 256°
2026-04-23 15:32 39.61684 3.50806 22721 ft 415 kts 256°
2026-04-23 15:32 39.60790 3.47238 23206 ft 417 kts 257°
2026-04-23 15:32 39.59910 3.43628 23701 ft 420 kts 257°
2026-04-23 15:33 39.59026 3.40004 24164 ft 423 kts 257°
2026-04-23 15:33 39.58124 3.36357 24626 ft 427 kts 257°
2026-04-23 15:33 39.57216 3.32739 25071 ft 429 kts 257°
2026-04-23 15:33 39.56285 3.29045 25506 ft 432 kts 257°
2026-04-23 15:34 39.55354 3.25334 25935 ft 434 kts 257°
2026-04-23 15:34 39.54417 3.21582 26108 ft 441 kts 257°
2026-04-23 15:34 39.53472 3.17790 26125 ft 446 kts 257°
2026-04-23 15:34 39.52504 3.13940 26125 ft 451 kts 257°
2026-04-23 15:35 39.51525 3.10065 26123 ft 454 kts 256°
2026-04-23 15:35 39.50541 3.06172 26122 ft 455 kts 256°
2026-04-23 15:35 39.49557 3.02280 26117 ft 456 kts 256°
2026-04-23 15:35 39.48569 2.98368 26120 ft 457 kts 256°
2026-04-23 15:36 39.47580 2.94454 26115 ft 458 kts 256°
2026-04-23 15:36 39.46583 2.90531 26117 ft 458 kts 256°
2026-04-23 15:36 39.45585 2.86612 26114 ft 459 kts 256°
2026-04-23 15:36 39.44584 2.82681 26115 ft 460 kts 256°
2026-04-23 15:37 39.43583 2.78752 26114 ft 460 kts 256°
2026-04-23 15:37 39.42579 2.74822 26115 ft 460 kts 256°
2026-04-23 15:37 39.41574 2.70890 26118 ft 461 kts 256°
2026-04-23 15:37 39.40565 2.66954 26119 ft 460 kts 256°
2026-04-23 15:38 39.39559 2.63035 26120 ft 460 kts 256°
2026-04-23 15:38 39.38549 2.59105 26113 ft 460 kts 256°
2026-04-23 15:38 39.37552 2.55232 26113 ft 459 kts 256°
2026-04-23 15:38 39.36543 2.51317 26113 ft 459 kts 256°
2026-04-23 15:39 39.35529 2.47393 26117 ft 460 kts 256°
2026-04-23 15:39 39.34515 2.43472 26116 ft 460 kts 255°
2026-04-23 15:39 39.33498 2.39547 26115 ft 460 kts 255°
2026-04-23 15:39 39.32480 2.35624 26112 ft 460 kts 255°
2026-04-23 15:40 39.31461 2.31708 26118 ft 460 kts 255°
2026-04-23 15:40 39.30441 2.27792 26115 ft 460 kts 255°
2026-04-23 15:40 39.29420 2.23872 26119 ft 460 kts 255°
2026-04-23 15:40 39.28397 2.19951 26116 ft 461 kts 255°
2026-04-23 15:41 39.27372 2.16028 26113 ft 461 kts 255°
2026-04-23 15:41 39.26341 2.12098 26111 ft 460 kts 255°
2026-04-23 15:41 39.25314 2.08192 26104 ft 458 kts 255°
2026-04-23 15:41 39.24303 2.04351 26103 ft 457 kts 255°
2026-04-23 15:42 39.23282 2.00469 26105 ft 457 kts 255°
2026-04-23 15:42 39.22261 1.96580 26103 ft 458 kts 255°
2026-04-23 15:42 39.21234 1.92683 26104 ft 460 kts 255°
2026-04-23 15:42 39.20199 1.88768 26102 ft 461 kts 255°
2026-04-23 15:43 39.19161 1.84858 26099 ft 461 kts 255°
2026-04-23 15:43 39.18119 1.80936 26097 ft 462 kts 254°
2026-04-23 15:43 39.17078 1.77018 26096 ft 462 kts 254°
2026-04-23 15:43 39.16036 1.73101 26096 ft 462 kts 254°
2026-04-23 15:44 39.14993 1.69185 26095 ft 462 kts 254°
2026-04-23 15:44 39.13950 1.65277 26095 ft 461 kts 254°
2026-04-23 15:44 39.12906 1.61371 26095 ft 461 kts 254°
2026-04-23 15:44 39.11860 1.57465 26095 ft 462 kts 254°
2026-04-23 15:45 39.10812 1.53561 26095 ft 462 kts 254°
2026-04-23 15:45 39.09762 1.49650 26103 ft 461 kts 254°
2026-04-23 15:45 39.08713 1.45746 26100 ft 462 kts 254°
2026-04-23 15:45 39.07660 1.41834 26091 ft 462 kts 254°
2026-04-23 15:46 39.06605 1.37926 26099 ft 461 kts 253°
2026-04-23 15:46 39.05552 1.34032 26098 ft 461 kts 253°
2026-04-23 15:46 39.04498 1.30135 26099 ft 462 kts 253°
2026-04-23 15:46 39.03439 1.26227 26092 ft 462 kts 253°
2026-04-23 15:47 39.02393 1.22375 26089 ft 461 kts 253°
2026-04-23 15:47 39.01334 1.18480 26088 ft 462 kts 253°
2026-04-23 15:47 39.00272 1.14578 26087 ft 462 kts 253°
2026-04-23 15:47 38.99210 1.10685 26087 ft 462 kts 253°
2026-04-23 15:48 38.98145 1.06784 26087 ft 461 kts 253°
2026-04-23 15:48 38.97083 1.02903 26087 ft 461 kts 253°
2026-04-23 15:48 38.96015 0.99007 26087 ft 462 kts 253°
2026-04-23 15:48 38.94949 0.95119 26086 ft 462 kts 253°
2026-04-23 15:49 38.93880 0.91227 26087 ft 461 kts 253°
2026-04-23 15:49 38.92809 0.87337 26086 ft 461 kts 253°
2026-04-23 15:49 38.91736 0.83446 26086 ft 462 kts 253°
2026-04-23 15:49 38.90664 0.79561 26086 ft 462 kts 253°
2026-04-23 15:50 38.89603 0.75721 26091 ft 462 kts 253°
2026-04-23 15:50 38.88501 0.71787 26090 ft 463 kts 250°
2026-04-23 15:50 38.87027 0.68105 26095 ft 465 kts 243°
2026-04-23 15:50 38.85469 0.64527 26096 ft 465 kts 243°
2026-04-23 15:51 38.83842 0.60938 26091 ft 467 kts 242°
2026-04-23 15:51 38.82170 0.57355 26089 ft 468 kts 241°
2026-04-23 15:51 38.80497 0.53783 26087 ft 467 kts 242°
2026-04-23 15:51 38.78847 0.50206 26086 ft 466 kts 242°
2026-04-23 15:52 38.77216 0.46622 26083 ft 465 kts 242°
2026-04-23 15:52 38.75581 0.43027 26080 ft 465 kts 242°
2026-04-23 15:52 38.73943 0.39454 26078 ft 465 kts 242°
2026-04-23 15:52 38.72292 0.35882 26077 ft 466 kts 241°
2026-04-23 15:53 38.70637 0.32310 26078 ft 466 kts 241°
2026-04-23 15:53 38.68991 0.28751 26077 ft 465 kts 241°
2026-04-23 15:53 38.67344 0.25183 25872 ft 464 kts 241°
2026-04-23 15:53 38.65688 0.21595 24698 ft 468 kts 241°
2026-04-23 15:54 38.64043 0.18044 23844 ft 459 kts 241°
2026-04-23 15:54 38.62428 0.14564 23032 ft 448 kts 241°
2026-04-23 15:54 38.60867 0.11208 22213 ft 439 kts 241°
2026-04-23 15:54 38.59322 0.07884 21427 ft 430 kts 241°
2026-04-23 15:55 38.57809 0.04627 20641 ft 421 kts 241°
2026-04-23 15:55 38.56325 0.01439 19860 ft 414 kts 241°
2026-04-23 15:55 38.54866 -0.01690 19091 ft 406 kts 241°
2026-04-23 15:55 38.53430 -0.04766 18320 ft 399 kts 240°
2026-04-23 15:56 38.52021 -0.07784 17560 ft 392 kts 239°
2026-04-23 15:56 38.50634 -0.10752 16799 ft 386 kts 239°
2026-04-23 15:56 38.49266 -0.13674 16052 ft 381 kts 239°
2026-04-23 15:56 38.47917 -0.16552 15301 ft 375 kts 239°
2026-04-23 15:57 38.46590 -0.19399 14557 ft 370 kts 241°
2026-04-23 15:57 38.45559 -0.22381 13810 ft 365 kts 251°
2026-04-23 15:57 38.44998 -0.25519 13080 ft 361 kts 260°
2026-04-23 15:57 38.44608 -0.28676 12316 ft 358 kts 261°
2026-04-23 15:58 38.44239 -0.31769 11580 ft 355 kts 261°
2026-04-23 15:58 38.43871 -0.34875 10968 ft 350 kts 261°
2026-04-23 15:58 38.43500 -0.37947 10889 ft 356 kts 260°
2026-04-23 15:58 38.43117 -0.41073 10749 ft 353 kts 260°
2026-04-23 15:59 38.42750 -0.44080 10586 ft 334 kts 260°
2026-04-23 15:59 38.42402 -0.46938 10432 ft 317 kts 260°
2026-04-23 15:59 38.42070 -0.49649 10293 ft 302 kts 260°
2026-04-23 15:59 38.41753 -0.52234 10168 ft 289 kts 260°
2026-04-23 16:00 38.41446 -0.54726 10043 ft 283 kts 260°
2026-04-23 16:00 38.41139 -0.57210 9721 ft 285 kts 259°
2026-04-23 16:00 38.40831 -0.59703 8889 ft 290 kts 260°
2026-04-23 16:00 38.40509 -0.62298 7812 ft 303 kts 260°
2026-04-23 16:01 38.40173 -0.64993 6725 ft 313 kts 260°
2026-04-23 16:01 38.39829 -0.67765 5636 ft 319 kts 260°
2026-04-23 16:01 38.39598 -0.69630 4905 ft 323 kts 260°
2026-04-23 16:01 38.39249 -0.72431 4353 ft 312 kts 260°
2026-04-23 16:02 38.38915 -0.75102 3957 ft 299 kts 261°
2026-04-23 16:02 38.38491 -0.77649 3552 ft 288 kts 245°
2026-04-23 16:02 38.36747 -0.79939 3079 ft 268 kts 198°
2026-04-23 16:02 38.35544 -0.80222 3027 ft 255 kts 173°
2026-04-23 16:03 38.33908 -0.79697 3049 ft 235 kts 158°
2026-04-23 16:03 38.32446 -0.78950 3036 ft 217 kts 141°
2026-04-23 16:03 38.31433 -0.77620 3034 ft 204 kts 117°
2026-04-23 16:03 38.30981 -0.75951 2989 ft 199 kts 98°
2026-04-23 16:04 38.30745 -0.74223 2741 ft 198 kts 97°
2026-04-23 16:04 38.30516 -0.72512 2501 ft 190 kts 98°
2026-04-23 16:04 38.30300 -0.70930 2248 ft 173 kts 98°
2026-04-23 16:04 38.30080 -0.69476 1921 ft 161 kts 99°
2026-04-23 16:05 38.29884 -0.68155 1688 ft 147 kts 95°
2026-04-23 16:05 38.29730 -0.66863 1411 ft 145 kts 98°
2026-04-23 16:05 38.29566 -0.65642 1272 ft 142 kts 97°
2026-04-23 16:05 38.29406 -0.64410 1020 ft 135 kts 98°
2026-04-23 16:06 38.29241 -0.63214 886 ft 136 kts 98°
2026-04-23 16:06 38.29076 -0.62033 740 ft 136 kts 98°
2026-04-23 16:06 38.28918 -0.60834 600 ft 135 kts 98°
2026-04-23 16:06 38.28746 -0.59679 469 ft 137 kts 99°
2026-04-23 16:07 38.28569 -0.58425 301 ft 148 kts 98°
2026-04-23 16:07 38.28416 -0.57216 150 ft 131 kts 98°
2026-04-23 16:07 38.28267 -0.56142 111 ft 102 kts 101°
2026-04-23 16:07 38.28227 -0.55638 93 ft 46 kts 82°
2026-04-23 16:08 38.28288 -0.55410 89 ft 20 kts 40°
2026-04-23 16:08 38.28349 -0.55493 94 ft 14 kts 282°
2026-04-23 16:08 38.28381 -0.55601 95 ft 12 kts 337°
2026-04-23 16:08 38.28460 -0.55595 96 ft 11 kts 11°
2026-04-23 16:09 38.28496 -0.55526 97 ft 9 kts 34°
2026-04-23 16:09 38.28554 -0.55509 92 ft 4 kts 10°
2026-04-23 16:09 38.28561 -0.55507 92 ft 0 kts 11°